| time (UTC) | temp F | wind direction | speed knots | gust knots | rain 1hr in | rain 24hr in | rain mn in | humidity % | barometer mb |
| 20260504174049 | 36 | 356 | 13.9 | 26.9 | 0.00 | 0.48 | 0.16 | 100 | 997.6 |
| 20260504173109 | 36 | 291 | 13.9 | 27.8 | 0.00 | 0.48 | 0.16 | 100 | 997.4 |
| 20260504172103 | 35 | 281 | 15.6 | 26.9 | 0.00 | 0.48 | 0.16 | 100 | 997.3 |
| 20260504171057 | 35 | 214 | 13.0 | 24.3 | 0.00 | 0.48 | 0.16 | 100 | 997.3 |
| 20260504170556 | 35 | 277 | 15.6 | 24.3 | 0.00 | 0.48 | 0.16 | 100 | 996.9 |
| 20260504151057 | 33 | 268 | 14.8 | 24.3 | 0.00 | 0.48 | 0.16 | 99 | 993.9 |
| 20260504140554 | 33 | 353 | 15.6 | 25.2 | 0.02 | 0.48 | 0.16 | 99 | 991.8 |
| 20260504130602 | 32 | 214 | 11.3 | 23.5 | 0.02 | 0.46 | 0.14 | 99 | 989.5 |
| 20260504120105 | 33 | 245 | 10.4 | 19.1 | 0.02 | 0.45 | 0.13 | 99 | 986.9 |
| 20260504110559 | 33 | 290 | 11.3 | 22.6 | 0.02 | 0.44 | 0.12 | 99 | 984.0 |
| 20260504100544 | 32 | 340 | 9.6 | 18.2 | 0.01 | 0.43 | 0.10 | 98 | 980.9 |
| 20260504081101 | 33 | 282 | 6.1 | 10.4 | 0.04 | 0.39 | 0.06 | 98 | 975.9 |
| 20260504050552 | 36 | 90 | 2.6 | 9.6 | 0.00 | 0.32 | 0.00 | 96 | 975.9 |
| 20260504045050 | 36 | 177 | 3.5 | 13.0 | 0.00 | 0.32 | 0.00 | 96 | 976.2 |
| 20260504044559 | 36 | 135 | 5.2 | 13.0 | 0.00 | 0.32 | 0.00 | 96 | 976.3 |
| 20260504043548 | 37 | 129 | 4.3 | 10.4 | 0.00 | 0.32 | 0.00 | 96 | 976.5 |
| 20260504042557 | 37 | 222 | 2.6 | 8.7 | 0.00 | 0.32 | 0.00 | 96 | 976.6 |
| 20260504041555 | 37 | 101 | 5.2 | 17.4 | 0.00 | 0.32 | 0.00 | 96 | 977.0 |
| 20260504040555 | 37 | 162 | 11.3 | 22.6 | 0.00 | 0.32 | 0.00 | 96 | 977.2 |
| 20260504040045 | 37 | 196 | 5.2 | 13.0 | 0.00 | 0.32 | 0.00 | 96 | 977.4 |
| 20260504035053 | 38 | 202 | 6.1 | 19.1 | 0.00 | 0.32 | 0.00 | 96 | 977.3 |
| 20260504034613 | 38 | 90 | 4.3 | 19.1 | 0.00 | 0.32 | 0.00 | 97 | 977.4 |
| 20260504033558 | 38 | 132 | 8.7 | 25.2 | 0.00 | 0.32 | 0.00 | 97 | 977.3 |
| 20260504033056 | 38 | 197 | 7.8 | 24.3 | 0.00 | 0.32 | 0.00 | 97 | 977.7 |
| 20260504032101 | 38 | 118 | 6.1 | 28.7 | 0.00 | 0.32 | 0.00 | 97 | 977.4 |
| 20260504031043 | 38 | 130 | 13.9 | 30.4 | 0.00 | 0.32 | 0.00 | 97 | 976.6 |
| 20260504030110 | 38 | 142 | 17.4 | 35.6 | 0.00 | 0.32 | 0.00 | 97 | 975.9 |
| 20260504025557 | 37 | 196 | 18.2 | 34.8 | 0.00 | 0.32 | 0.32 | 97 | 976.2 |
| 20260504025049 | 37 | 127 | 19.1 | 34.8 | 0.00 | 0.32 | 0.32 | 97 | 976.6 |
| 20260504024048 | 37 | 140 | 7.8 | 25.2 | 0.00 | 0.32 | 0.32 | 96 | 978.0 |
| 20260504023057 | 37 | 87 | 11.3 | 27.8 | 0.00 | 0.32 | 0.32 | 97 | 978.7 |
| 20260504022050 | 36 | 125 | 11.3 | 24.3 | 0.00 | 0.32 | 0.32 | 96 | 979.3 |
| 20260504021050 | 37 | 40 | 15.6 | 33.0 | 0.00 | 0.32 | 0.32 | 96 | 979.8 |
| 20260504020056 | 37 | 177 | 15.6 | 33.9 | 0.00 | 0.32 | 0.32 | 96 | 979.4 |
| 20260504015547 | 37 | 99 | 17.4 | 39.1 | 0.00 | 0.32 | 0.32 | 96 | 979.8 |
| 20260504015049 | 37 | 122 | 20.0 | 36.5 | 0.00 | 0.32 | 0.32 | 96 | 979.1 |
| 20260504014047 | 37 | 187 | 24.3 | 41.7 | 0.00 | 0.32 | 0.32 | 96 | 978.4 |
| 20260504013102 | 37 | 156 | 22.6 | 40.0 | 0.01 | 0.32 | 0.32 | 96 | 978.6 |
| 20260504012102 | 37 | 119 | 27.8 | 45.2 | 0.01 | 0.32 | 0.32 | 96 | 978.7 |
| 20260504011100 | 37 | 126 | 26.9 | 44.3 | 0.02 | 0.32 | 0.32 | 96 | 979.3 |
| 20260504010552 | 37 | 89 | 28.7 | 48.7 | 0.02 | 0.32 | 0.32 | 96 | 979.3 |
| 20260504005557 | 37 | 196 | 27.8 | 55.6 | 0.02 | 0.32 | 0.32 | 96 | 979.0 |
| 20260504005055 | 37 | 132 | 28.7 | 52.1 | 0.02 | 0.32 | 0.32 | 96 | 979.5 |
| 20260504004103 | 37 | 152 | 27.8 | 46.1 | 0.02 | 0.32 | 0.32 | 96 | 980.0 |
| 20260504002056 | 37 | 133 | 24.3 | 46.9 | 0.02 | 0.31 | 0.31 | 96 | 982.7 |
| 20260504001557 | 37 | 154 | 23.5 | 39.1 | 0.02 | 0.31 | 0.31 | 96 | 983.1 |
| 20260504001037 | 37 | 119 | 23.5 | 42.6 | 0.02 | 0.31 | 0.31 | 96 | 983.6 |
| 20260504000048 | 37 | 115 | 21.7 | 36.5 | 0.02 | 0.31 | 0.31 | 96 | 984.7 |
| 20260503235057 | 37 | 126 | 17.4 | 37.4 | 0.02 | 0.31 | 0.31 | 97 | 986.4 |
| 20260503234554 | 37 | 210 | 16.5 | 36.5 | 0.03 | 0.31 | 0.31 | 97 | 986.8 |
| 20260503234047 | 37 | 126 | 15.6 | 32.2 | 0.03 | 0.30 | 0.30 | 96 | 987.5 |
| 20260503233102 | 37 | 158 | 13.0 | 31.3 | 0.05 | 0.30 | 0.30 | 97 | 988.5 |
| 20260503232558 | 37 | 108 | 13.9 | 31.3 | 0.06 | 0.30 | 0.30 | 97 | 989.2 |
| 20260503232056 | 37 | 116 | 16.5 | 30.4 | 0.06 | 0.29 | 0.29 | 96 | 989.3 |
| 20260503231049 | 38 | 166 | 14.8 | 26.1 | 0.06 | 0.29 | 0.29 | 97 | 990.4 |
| 20260503230546 | 38 | 111 | 13.0 | 26.1 | 0.07 | 0.29 | 0.29 | 97 | 991.2 |
| 20260503225551 | 38 | 156 | 10.4 | 21.7 | 0.08 | 0.28 | 0.28 | 98 | 991.9 |
| 20260503225048 | 38 | 114 | 10.4 | 20.9 | 0.09 | 0.28 | 0.28 | 98 | 992.3 |
| 20260503224047 | 38 | 129 | 7.8 | 17.4 | 0.11 | 0.26 | 0.26 | 98 | 993.1 |
| 20260503223059 | 37 | 61 | 4.3 | 13.9 | 0.13 | 0.25 | 0.25 | 98 | 994.1 |
| 20260503222548 | 36 | 150 | 7.0 | 13.9 | 0.13 | 0.24 | 0.24 | 97 | 994.2 |
| 20260503221551 | 36 | 75 | 7.0 | 17.4 | 0.13 | 0.23 | 0.23 | 97 | 994.4 |
| 20260503220558 | 35 | 106 | 7.8 | 20.9 | 0.12 | 0.22 | 0.22 | 97 | 994.4 |
| 20260503220053 | 35 | 185 | 7.0 | 18.2 | 0.11 | 0.21 | 0.21 | 97 | 994.3 |
| 20260503215547 | 35 | 85 | 6.1 | 21.7 | 0.10 | 0.20 | 0.20 | 97 | 994.6 |
| 20260503214547 | 34 | 100 | 8.7 | 20.9 | 0.08 | 0.17 | 0.17 | 97 | 993.8 |
| 20260503213606 | 35 | 117 | 10.4 | 24.3 | 0.05 | 0.13 | 0.13 | 96 | 994.1 |
| 20260503213055 | 35 | 93 | 12.2 | 25.2 | 0.03 | 0.11 | 0.11 | 96 | 994.2 |
| 20260503212545 | 35 | 100 | 13.0 | 25.2 | 0.04 | 0.11 | 0.11 | 95 | 994.8 |
| 20260503211608 | 37 | 72 | 8.7 | 21.7 | 0.06 | 0.10 | 0.10 | 96 | 996.0 |
| 20260503211048 | 37 | 135 | 7.0 | 13.9 | 0.07 | 0.10 | 0.10 | 96 | 996.2 |
| 20260503210542 | 37 | 97 | 7.0 | 13.9 | 0.09 | 0.10 | 0.10 | 96 | 996.2 |
| 20260503205601 | 37 | 91 | 7.0 | 13.9 | 0.09 | 0.10 | 0.10 | 96 | 996.7 |
| 20260503205040 | 37 | 81 | 6.1 | 11.3 | 0.09 | 0.09 | 0.09 | 96 | 997.3 |
| 20260503204059 | 37 | 94 | 3.5 | 12.2 | 0.09 | 0.09 | 0.09 | 95 | 998.1 |
| 20260503203100 | 37 | 78 | 6.1 | 13.0 | 0.08 | 0.08 | 0.08 | 95 | 998.5 |
| 20260503202546 | 37 | 105 | 6.1 | 13.0 | 0.07 | 0.07 | 0.07 | 95 | 998.6 |
| 20260503201559 | 37 | 110 | 9.6 | 20.0 | 0.04 | 0.04 | 0.04 | 95 | 998.7 |
| 20260503200555 | 37 | 131 | 8.7 | 20.0 | 0.01 | 0.01 | 0.01 | 94 | 999.0 |
| 20260503200050 | 37 | 102 | 8.7 | 20.0 | 0.01 | 0.01 | 0.01 | 93 | 999.2 |
| 20260503195059 | 38 | 101 | 8.7 | 20.0 | 0.00 | 0.00 | 0.00 | 91 | 999.9 |
| 20260503194554 | 38 | 152 | 8.7 | 18.2 | 0.00 | 0.00 | 0.00 | 89 | 1000.4 |
| 20260503194054 | 38 | 112 | 7.8 | 16.5 | 0.00 | 0.00 | 0.00 | 88 | 1001.0 |
| 20260503193101 | 39 | 83 | 9.6 | 18.2 | 0.00 | 0.00 | 0.00 | 85 | 1001.6 |
| 20260503192556 | 39 | 129 | 7.8 | 18.2 | 0.00 | 0.00 | 0.00 | 83 | 1001.8 |
| 20260503192041 | 40 | 139 | 8.7 | 15.6 | 0.00 | 0.00 | 0.00 | 81 | 1002.1 |
| 20260503191100 | 41 | 130 | 7.8 | 21.7 | 0.00 | 0.00 | 0.00 | 78 | 1002.6 |
| 20260503190556 | 42 | 167 | 9.6 | 20.0 | 0.00 | 0.00 | 0.00 | 76 | 1002.7 |
| 20260503185558 | 43 | 16 | 7.0 | 12.2 | 0.00 | 0.00 | 0.00 | 71 | 1003.3 |
| 20260503184557 | 44 | 125 | 9.6 | 20.0 | 0.00 | 0.00 | 0.00 | 69 | 1003.7 |
| 20260503183559 | 44 | 112 | 8.7 | 17.4 | 0.00 | 0.00 | 0.00 | 66 | 1004.1 |
| 20260503183109 | 45 | 124 | 8.7 | 19.1 | 0.00 | 0.00 | 0.00 | 63 | 1004.1 |
| 20260503182548 | 45 | 158 | 10.4 | 21.7 | 0.00 | 0.00 | 0.00 | 60 | 1004.3 |
| 20260503182046 | 46 | 125 | 12.2 | 22.6 | 0.00 | 0.00 | 0.00 | 57 | 1004.5 |
| 20260503181053 | 47 | 123 | 8.7 | 21.7 | 0.00 | 0.00 | 0.00 | 52 | 1004.8 |
| 20260503180120 | 47 | 173 | 12.2 | 24.3 | 0.00 | 0.00 | 0.00 | 47 | 1004.7 |
| 20260503175050 | 47 | 173 | 11.3 | 25.2 | 0.00 | 0.00 | 0.00 | 48 | 1004.8 |